Regional Weather Roundup
Issued by NWS Albany, NY

Home | Current Version | Previous Version | Text Only | Print | Product List | Glossary On
Versions: 1 2 3 4 5 6 7 8 9 10 11 12 13 14 15 16 17 18 19 20 21 22 23 24 25 26 27
000
ASUS41 KALY 191710
RWRALY

NEW YORK STATE HOURLY WEATHER ROUNDUP
NATIONAL WEATHER SERVICE ALBANY NY
100 PM EDT SAT AUG 19 2017

NOTE: "FAIR" INDICATES FEW OR NO CLOUDS BELOW 12,000 FEET WITH NO
SIGNIFICANT WEATHER AND/OR NO OBSTRUCTIONS TO VISIBILITY.

NYZ032-033-038>043-046>054-057>066-NYZ062>081-082-084-191800-
EAST


CITY           SKY/WX    TMP DP  RH WIND       PRES   REMARKS
ALBANY         PTSUNNY   79  64  60 NW7       29.83F
GLENS FALLS    MOSUNNY   81  63  54 VRB7      29.81F
POUGHKEEPSIE   PTSUNNY   82  63  52 MISG      29.84S
NEWBURGH       PTSUNNY   81  66  61 W12       29.88S
MONTGOMERY     MOSUNNY   82  65  56 VRB7      29.86S
WHITE PLAINS   PTSUNNY   82  63  52 NW6       29.87S
ISLIP          PTSUNNY   85  70  60 S13       29.85S
NEW YORK CITY  PTSUNNY   85  64  49 SW6       29.85S
CENTRAL PARK   PTSUNNY   83  65  54 VRB3      29.89S
$$

NYZ005>009-017-018-044>046-055-056-191800-
CENTRAL


CITY           SKY/WX    TMP DP  RH WIND       PRES   REMARKS
FULTON         PTSUNNY   76  61  59 W12       29.86F
SYRACUSE       MOSUNNY   79  57  46 W21       29.85S
ROME           PTSUNNY   77  60  55 W15G24    29.86F
ELMIRA         PTSUNNY   78  61  55 SW6       29.88F
BINGHAMTON     CLOUDY    72  61  68 W5        29.91F
MONTICELLO     PTSUNNY   76  62  62 W8        29.92F
$$

NYZ026>034-041>043-087-191800-
NORTH


CITY           SKY/WX    TMP DP  RH WIND       PRES   REMARKS
WATERTOWN      CLOUDY    71  63  75 SW18G28   29.83S
FORT DRUM      NOT AVBL
OGDENSBURG     PTSUNNY   79  64  61 SW10      29.78S
MASSENA        CLOUDY    77  64  64 SW12      29.77F
SARANAC LAKE   CLOUDY    68  63  84 SW15G21   29.84R
PLATTSBURGH    PTSUNNY   75  68  78 S8        29.76S
$$

NYZ001>004-010>016-019>021-085-191800-
WEST


CITY           SKY/WX    TMP DP  RH WIND       PRES   REMARKS
NIAGARA FALLS  PTSUNNY   76  60  57 SW14      29.85F
BUFFALO        PTSUNNY   74  61  63 SW20G25   29.87F
DUNKIRK        CLOUDY    74  64  71 SW14G20   29.89F
JAMESTOWN      CLOUDY    66  61  82 NW10      29.94S
WELLSVILLE     PTSUNNY   75  60  59 W7        29.95F
ROCHESTER      CLOUDY    76  59  55 W17       29.87S
PENN YAN       MOSUNNY   77  61  57 W7        29.90S
$$

             KEY
       WCI = WIND CHILL INDEX
       VSB = VISIBILITY
       HX  = HEAT INDEX
$$




USA.gov is the U.S. government's official web portal to all federal, state and local government web resources and services.